Location: Unspecified
(0.0000°N, 0.0000°E)
Time: 14:16:20
(UTC+00:00)

PAYLOAD C - Pass Details

Date: 09 June 2023
Orbit: 809 x 823 km, 98.7° (Epoch: 21 September)

Event Time Altitude Azimuth Distance (km) Brightness Sun altitude
Rises 04:44:15 0° 48° (NE) 3,318 ? -17.2°
Reaches altitude 10° 04:47:45 10° 73° (ENE) 2,393 ? -16.4°
Maximum altitude 04:50:26 14° 103° (ESE) 2,121 ? -15.8°
Drops below altitude 10° 04:53:07 10° 134° (SE) 2,402 ? -15.2°
Sets 04:56:37 0° 158° (SSE) 3,340 ? -14.4°
